KA6UPU-1 Weather Reports


time (UTC)temp
C
wind
direction
speed
KPH
gust
KPH
rain 1hr
cm
rain 24hr
cm
rain mn
cm
humidity
%
barometer
mb
20260506211716 24 120 3.2 6.4 0.00 0.00 0.00 51 1018.4
20260506211217 24 90 1.6 6.4 0.00 0.00 0.00 52 1018.4
20260506210215 24 121 4.8 17.7 0.00 0.00 0.00 50 1018.4
20260506205715 24 141 4.8 12.9 0.00 0.00 0.00 51 1018.4
20260506205215 24 98 1.6 9.7 0.00 0.00 0.00 53 1018.5
20260506204215 23 343 3.2 12.9 0.00 0.00 0.00 53 1018.6
20260506203715 23 357 1.6 12.9 0.00 0.00 0.00 54 1018.7
20260506203215 23 14 8.0 12.9 0.00 0.00 0.00 53 1018.9
20260506202715 23 19 1.6 14.5 0.00 0.00 0.00 54 1018.9
20260506202215 23 59 3.2 14.5 0.00 0.00 0.00 54 1019.0
20260506201715 23 75 4.8 11.3 0.00 0.00 0.00 54 1018.9
20260506201215 23 0 0.0 9.7 0.00 0.00 0.00 54 1019.1
20260506200715 23 23 1.6 14.5 0.00 0.00 0.00 55 1019.2
20260506200216 23 12 6.4 14.5 0.00 0.00 0.00 54 1019.2
20260506195715 23 90 3.2 11.3 0.00 0.00 0.00 55 1019.2
20260506194715 23 132 3.2 12.9 0.00 0.00 0.00 54 1019.3
20260506194215 23 128 3.2 12.9 0.00 0.00 0.00 57 1019.3
20260506192715 22 0 0.0 8.0 0.00 0.00 0.00 59 1019.5
20260506192215 22 0 0.0 8.0 0.00 0.00 0.00 56 1019.5
20260506191715 22 27 1.6 8.0 0.00 0.00 0.00 57 1019.6
20260506190715 22 0 0.0 14.5 0.00 0.00 0.00 55 1019.7
20260506190218 22 89 3.2 14.5 0.00 0.00 0.00 57 1019.6
20260506185716 22 0 0.0 12.9 0.00 0.00 0.00 59 1019.6
20260506185215 22 0 0.0 12.9 0.00 0.00 0.00 59 1019.7
20260506184215 21 0 0.0 6.4 0.00 0.00 0.00 62 1019.8
20260506183716 21 32 1.6 6.4 0.00 0.00 0.00 62 1019.8
20260506182215 21 359 1.6 12.9 0.00 0.00 0.00 63 1019.9
20260506181427 21 60 1.6 11.3 0.00 0.00 0.00 62 1019.9
20260506180927 21 44 1.6 11.3 0.00 0.00 0.00 63 1019.9
20260506180426 20 133 3.2 9.7 0.00 0.00 0.00 64 1019.9
20260506175926 20 0 0.0 6.4 0.00 0.00 0.00 63 1019.9
20260506175426 20 0 0.0 6.4 0.00 0.00 0.00 65 1019.9
20260506174926 20 91 1.6 6.4 0.00 0.00 0.00 65 1019.9
20260506174427 20 0 0.0 6.4 0.00 0.00 0.00 66 1019.9
20260506173926 20 312 1.6 6.4 0.00 0.00 0.00 65 1020.0
20260506173426 20 0 0.0 6.4 0.00 0.00 0.00 67 1020.0
20260506172927 19 46 1.6 4.8 0.00 0.00 0.00 68 1020.0
20260506172427 19 284 1.6 6.4 0.00 0.00 0.00 66 1020.0
20260506171926 19 327 3.2 6.4 0.00 0.00 0.00 67 1020.1
20260506171426 19 14 1.6 6.4 0.00 0.00 0.00 67 1020.1
20260506170926 19 80 1.6 9.7 0.00 0.00 0.00 67 1020.1
20260506170426 19 11 1.6 9.7 0.00 0.00 0.00 68 1020.2
20260506165926 19 0 0.0 8.0 0.00 0.00 0.00 68 1020.1
20260506165426 18 0 0.0 8.0 0.00 0.00 0.00 69 1020.1
20260506164926 18 0 0.0 6.4 0.00 0.00 0.00 70 1020.1
20260506164426 18 137 1.6 8.0 0.00 0.00 0.00 68 1020.1
20260506163926 18 0 0.0 11.3 0.00 0.00 0.00 69 1020.2
20260506163426 18 130 3.2 11.3 0.00 0.00 0.00 69 1020.2
20260506162926 18 132 1.6 11.3 0.00 0.00 0.00 70 1020.2
20260506162427 18 152 1.6 6.4 0.00 0.00 0.00 71 1020.2
20260506161514 17 181 4.8 9.7 0.00 0.00 0.00 71 1020.2
20260506161014 17 297 1.6 8.0 0.00 0.00 0.00 72 1020.2
20260506160514 17 0 0.0 8.0 0.00 0.00 0.00 73 1020.2
20260506160014 17 0 0.0 9.7 0.00 0.00 0.00 74 1020.3
20260506155514 17 280 1.6 9.7 0.00 0.00 0.00 73 1020.3
20260506154953 17 181 1.6 8.0 0.00 0.00 0.00 75 1020.3
20260506154453 16 0 0.0 6.4 0.00 0.00 0.00 76 1020.3
20260506153953 16 159 1.6 8.0 0.00 0.00 0.00 76 1020.3
20260506153453 16 164 1.6 8.0 0.00 0.00 0.00 76 1020.4
20260506152453 16 0 0.0 6.4 0.00 0.00 0.00 78 1020.4
20260506151953 15 240 1.6 6.4 0.00 0.00 0.00 80 1020.4
20260506151453 15 0 0.0 3.2 0.00 0.00 0.00 82 1020.3
20260506150953 15 0 0.0 6.4 0.00 0.00 0.00 82 1020.3
20260506150453 15 0 0.0 6.4 0.00 0.00 0.00 83 1020.4
20260506145453 13 0 0.0 4.8 0.00 0.00 0.00 86 1020.3
20260506144953 13 0 0.0 4.8 0.00 0.00 0.00 87 1020.3
20260506143953 13 0 0.0 1.6 0.00 0.00 0.00 90 1020.3
20260506143453 12 0 0.0 1.6 0.00 0.00 0.00 91 1020.2
20260506142953 12 0 0.0 1.6 0.00 0.00 0.00 91 1020.3
20260506142453 12 0 0.0 1.6 0.00 0.00 0.00 92 1020.2
20260506141953 12 0 0.0 0.0 0.00 0.00 0.00 91 1020.1
20260506141453 11 0 0.0 0.0 0.00 0.00 0.00 91 1020.1
20260506140953 11 0 0.0 0.0 0.00 0.00 0.00 91 1020.0
20260506140453 11 0 0.0 0.0 0.00 0.00 0.00 91 1020.0
20260506135953 11 0 0.0 0.0 0.00 0.00 0.00 91 1019.9
20260506135453 11 0 0.0 0.0 0.00 0.00 0.00 91 1019.8
20260506134953 11 0 0.0 0.0 0.00 0.00 0.00 91 1019.7
20260506134453 11 0 0.0 0.0 0.00 0.00 0.00 91 1019.7
20260506133953 11 0 0.0 0.0 0.00 0.00 0.00 90 1019.7
20260506133453 11 0 0.0 0.0 0.00 0.00 0.00 91 1019.8
20260506132953 11 0 0.0 0.0 0.00 0.00 0.00 91 1019.7
20260506132453 11 0 0.0 1.6 0.00 0.00 0.00 90 1019.6
20260506131953 12 0 0.0 1.6 0.00 0.00 0.00 91 1019.7
20260506131453 12 0 0.0 0.0 0.00 0.00 0.00 91 1019.6
20260506130953 12 0 0.0 0.0 0.00 0.00 0.00 91 1019.6
20260506125953 12 0 0.0 0.0 0.00 0.00 0.00 91 1019.5
20260506124953 12 0 0.0 0.0 0.00 0.00 0.00 91 1019.5
20260506124453 12 0 0.0 0.0 0.00 0.00 0.00 91 1019.4
20260506123953 12 0 0.0 0.0 0.00 0.00 0.00 91 1019.4
20260506122953 12 0 0.0 0.0 0.00 0.00 0.00 91 1019.4
20260506122453 12 0 0.0 0.0 0.00 0.00 0.00 91 1019.4
20260506121953 12 0 0.0 0.0 0.00 0.00 0.00 91 1019.4
20260506121453 12 0 0.0 0.0 0.00 0.00 0.00 91 1019.3
20260506120953 12 0 0.0 0.0 0.00 0.00 0.00 91 1019.3
20260506120453 12 0 0.0 0.0 0.00 0.00 0.00 91 1019.2
20260506115952 12 0 0.0 0.0 0.00 0.00 0.00 91 1019.3
20260506115453 12 0 0.0 0.0 0.00 0.00 0.00 91 1019.2
20260506114452 11 0 0.0 0.0 0.00 0.00 0.00 91 1019.2
20260506113952 11 0 0.0 0.0 0.00 0.00 0.00 91 1019.2
20260506113453 11 0 0.0 0.0 0.00 0.00 0.00 91 1019.2
20260506112952 11 0 0.0 0.0 0.00 0.00 0.00 91 1019.1
20260506112452 11 0 0.0 0.0 0.00 0.00 0.00 91 1019.0
20260506111955 11 0 0.0 0.0 0.00 0.00 0.00 91 1019.0
20260506111452 11 0 0.0 0.0 0.00 0.00 0.00 91 1018.9
20260506110952 11 0 0.0 0.0 0.00 0.00 0.00 91 1018.8
20260506110452 11 0 0.0 0.0 0.00 0.00 0.00 91 1018.8
20260506105953 11 0 0.0 0.0 0.00 0.00 0.00 91 1018.8
20260506105452 11 0 0.0 0.0 0.00 0.00 0.00 91 1018.9
20260506104952 11 0 0.0 0.0 0.00 0.00 0.00 91 1018.8
20260506104452 11 0 0.0 0.0 0.00 0.00 0.00 91 1018.8
20260506103952 11 0 0.0 0.0 0.00 0.00 0.00 91 1018.8
20260506103452 11 0 0.0 3.2 0.00 0.00 0.00 91 1018.8
20260506102952 11 0 0.0 3.2 0.00 0.00 0.00 91 1018.8
20260506102452 11 0 0.0 0.0 0.00 0.00 0.00 91 1018.8
20260506101952 11 0 0.0 0.0 0.00 0.00 0.00 91 1018.7
20260506101452 11 0 0.0 0.0 0.00 0.00 0.00 91 1018.7
20260506100952 11 0 0.0 1.6 0.00 0.00 0.00 91 1018.6
20260506100452 11 0 0.0 1.6 0.00 0.00 0.00 91 1018.6
20260506095952 11 0 0.0 0.0 0.00 0.00 0.00 91 1018.6
20260506095452 11 0 0.0 0.0 0.00 0.00 0.00 91 1018.6
20260506094952 11 0 0.0 1.6 0.00 0.00 0.00 91 1018.7
20260506094452 11 0 0.0 1.6 0.00 0.00 0.00 91 1018.7
20260506093952 11 0 0.0 0.0 0.00 0.00 0.00 91 1018.7
20260506093453 11 0 0.0 0.0 0.00 0.00 0.00 91 1018.7
20260506092952 11 0 0.0 0.0 0.00 0.00 0.00 91 1018.6
20260506092453 11 0 0.0 0.0 0.00 0.00 0.00 90 1018.6
20260506091952 11 0 0.0 0.0 0.00 0.00 0.00 90 1018.7
20260506090952 11 0 0.0 0.0 0.00 0.00 0.00 90 1018.8
20260506090452 11 0 0.0 3.2 0.00 0.00 0.00 90 1018.8
20260506085952 11 0 0.0 3.2 0.00 0.00 0.00 90 1018.7
20260506084952 10 0 0.0 1.6 0.00 0.03 0.00 89 1018.8
20260506084452 10 0 0.0 1.6 0.00 0.03 0.00 89 1018.7
20260506084304 10 0 0.0 1.6 0.00 0.03 0.00 89 1018.7
20260506083952 10 0 0.0 1.6 0.00 0.03 0.00 89 1018.7
20260506083452 10 0 0.0 1.6 0.00 0.03 0.00 88 1018.6
20260506082952 10 0 0.0 0.0 0.00 0.03 0.00 88 1018.6
20260506082452 10 0 0.0 0.0 0.00 0.03 0.00 88 1018.7
20260506081952 10 0 0.0 4.8 0.00 0.05 0.00 87 1018.7
20260506080952 10 0 0.0 1.6 0.00 0.05 0.00 87 1018.6
20260506080452 11 0 0.0 1.6 0.00 0.08 0.00 87 1018.6
20260506073452 11 0 0.0 1.6 0.00 0.18 0.00 87 1018.5
20260506072952 11 0 0.0 1.6 0.00 0.18 0.00 87 1018.5
20260506072453 11 0 0.0 1.6 0.00 0.20 0.00 87 1018.5
20260506071452 11 0 0.0 8.0 0.00 0.20 0.00 86 1018.4
20260506070952 11 0 0.0 8.0 0.00 0.23 0.00 86 1018.3
20260506070452 11 0 0.0 4.8 0.00 0.25 0.00 85 1018.2
20260506062241 11 0 0.0 0.0 0.00 0.30 0.25 84 1017.9
20260506061741 11 0 0.0 0.0 0.00 0.33 0.25 84 1017.8
20260506061241 11 0 0.0 0.0 0.00 0.33 0.25 84 1017.8
20260506060741 12 0 0.0 0.0 0.00 0.33 0.25 83 1017.7
20260506060241 12 0 0.0 0.0 0.00 0.33 0.25 84 1017.8
20260506051241 12 0 0.0 3.2 0.00 0.41 0.25 82 1017.4
20260506050741 12 0 0.0 3.2 0.00 0.43 0.25 81 1017.4
20260506050241 12 0 0.0 3.2 0.00 0.43 0.25 81 1017.4
20260506044910 13 0 0.0 4.8 0.00 0.46 0.25 81 1017.2
20260506044411 13 0 0.0 4.8 0.00 0.48 0.25 81 1017.2
20260506043910 13 0 0.0 6.4 0.00 0.51 0.25 80 1017.1
20260506042910 13 0 0.0 9.7 0.00 0.53 0.25 80 1016.9
20260506042410 13 0 0.0 9.7 0.00 0.53 0.25 80 1016.9
20260506041911 13 311 1.6 8.0 0.00 0.53 0.25 79 1016.9
20260506041410 13 289 1.6 12.9 0.00 0.53 0.25 79 1016.7
20260506040910 13 295 1.6 12.9 0.00 0.53 0.25 79 1016.8
20260506040410 13 0 0.0 9.7 0.00 0.53 0.25 78 1016.7
20260506035910 13 307 1.6 11.3 0.00 0.53 0.25 78 1016.6
20260506035410 13 299 3.2 11.3 0.00 0.53 0.25 78 1016.6
20260506034910 13 286 4.8 9.7 0.00 0.53 0.25 78 1016.6
20260506034410 13 275 3.2 14.5 0.00 0.53 0.25 77 1016.5
20260506033910 14 301 3.2 14.5 0.00 0.53 0.25 77 1016.4
20260506032910 14 291 4.8 19.3 0.00 0.53 0.25 76 1016.3
20260506032410 14 309 4.8 17.7 0.00 0.53 0.25 76 1016.1
20260506031910 14 287 6.4 14.5 0.00 0.53 0.25 77 1016.0
20260506031410 14 266 3.2 14.5 0.00 0.53 0.25 77 1015.9
20260506030910 14 286 4.8 12.9 0.00 0.53 0.25 77 1015.8
20260506030410 14 302 4.8 17.7 0.00 0.53 0.25 77 1015.7
20260506025910 14 267 8.0 17.7 0.00 0.53 0.25 76 1015.7
20260506025310 14 272 4.8 14.5 0.00 0.53 0.25 76 1015.6
20260506024810 15 288 4.8 19.3 0.00 0.53 0.25 76 1015.7
20260506024310 15 280 4.8 19.3 0.00 0.53 0.25 76 1015.6
20260506023810 15 278 1.6 17.7 0.00 0.53 0.25 75 1015.6
20260506023310 15 272 4.8 17.7 0.00 0.53 0.25 75 1015.6
20260506022810 15 272 8.0 19.3 0.00 0.53 0.25 75 1015.6
20260506022310 15 280 8.0 19.3 0.00 0.53 0.25 74 1015.5
20260506021810 15 293 8.0 17.7 0.00 0.53 0.25 74 1015.6
20260506021310 15 283 8.0 17.7 0.00 0.53 0.25 74 1015.4
20260506020810 15 304 4.8 16.1 0.00 0.53 0.25 74 1015.4
20260506015311 15 291 8.0 19.3 0.00 0.53 0.25 74 1015.2
20260506014810 15 269 6.4 19.3 0.00 0.53 0.25 73 1015.1
20260506013309 15 274 3.2 17.7 0.00 0.53 0.25 74 1015.0
20260506012809 15 293 1.6 17.7 0.00 0.53 0.25 74 1015.0
20260506012309 15 286 9.7 19.3 0.00 0.53 0.25 73 1015.0
20260506011809 16 288 8.0 20.9 0.00 0.53 0.25 74 1015.1
20260506011309 16 287 8.0 20.9 0.00 0.53 0.25 74 1015.2
20260506010809 16 295 9.7 17.7 0.00 0.53 0.25 74 1015.2
20260506005309 16 297 4.8 14.5 0.00 0.53 0.25 74 1015.1
20260506004310 16 260 6.4 17.7 0.00 0.53 0.25 74 1014.9
20260506003809 16 290 4.8 16.1 0.00 0.53 0.25 74 1014.9
20260506002809 16 269 4.8 17.7 0.00 0.53 0.25 74 1014.9
20260506001809 16 283 11.3 17.7 0.00 0.53 0.25 74 1014.9
20260506001310 16 292 8.0 20.9 0.00 0.53 0.25 74 1014.8
20260506000311 16 291 3.2 17.7 0.00 0.53 0.25 75 1014.9
20260505235809 16 299 9.7 17.7 0.00 0.53 0.25 74 1014.9
20260505235309 16 298 4.8 19.3 0.00 0.53 0.25 74 1014.9
20260505234809 17 309 8.0 19.3 0.00 0.53 0.25 74 1014.9
20260505234310 17 282 8.0 16.1 0.00 0.53 0.25 74 1014.9
20260505233809 17 259 6.4 17.7 0.00 0.53 0.25 73 1014.9
20260505233309 17 300 6.4 17.7 0.00 0.53 0.25 73 1014.9
20260505232809 17 298 1.6 14.5 0.00 0.53 0.25 74 1014.9
20260505232309 17 296 4.8 14.5 0.00 0.53 0.25 74 1014.9
20260505231809 17 296 4.8 14.5 0.00 0.53 0.25 73 1015.0
20260505231309 17 295 6.4 14.5 0.00 0.53 0.25 73 1014.9
20260505230809 17 261 4.8 12.9 0.00 0.53 0.25 74 1014.9
20260505230310 16 258 1.6 11.3 0.00 0.53 0.25 74 1015.0
20260505225809 16 276 3.2 12.9 0.00 0.53 0.25 74 1015.0
20260505225309 16 271 6.4 12.9 0.00 0.53 0.25 75 1015.0
20260505224809 16 262 4.8 12.9 0.00 0.53 0.25 74 1015.0
20260505224309 16 294 3.2 12.9 0.00 0.53 0.25 74 1015.0
20260505223809 16 253 4.8 11.3 0.00 0.53 0.25 74 1015.0
20260505222810 16 273 1.6 11.3 0.00 0.53 0.25 74 1015.0
20260505222309 16 205 1.6 12.9 0.00 0.53 0.25 74 1015.0
20260505221809 16 256 1.6 12.9 0.00 0.53 0.25 73 1015.0
20260505221309 17 249 6.4 12.9 0.00 0.53 0.25 73 1015.0
20260505220809 17 268 4.8 12.9 0.00 0.53 0.25 73 1015.0
20260505220309 17 229 3.2 9.7 0.00 0.53 0.25 73 1015.0
20260505215809 17 240 1.6 11.3 0.00 0.53 0.25 73 1015.0
20260505214809 17 284 3.2 11.3 0.00 0.53 0.25 73 1015.1
20260505214309 17 284 4.8 11.3 0.00 0.53 0.25 72 1015.1
20260505213809 17 261 3.2 12.9 0.00 0.53 0.25 72 1015.2
20260505212809 17 302 4.8 12.9 0.00 0.53 0.25 71 1015.2
20260505212309 17 256 3.2 12.9 0.00 0.53 0.25 71 1015.2